Temperature
22 21 20 20 20 21 23 25 26 26 25 25 25 24 23 22 21 20 20 21 21 21 21 21 20 20 20 20 20 20 20 20 20 20 20 20 19 19 19 19 19 19 19 19 19 19 19 19 19
22 21 20 20 21 22 24 26 26 26 26 25 25 24 23 22 21 20 20 21 21 21 21 21 20 20 20 20 20 20 20 20 20 20 20 19 19 19 19 19 19 19 19 19 19 19 19 19 18
22 21 21 20 22 22 25 26 26 27 26 26 25 24 23 22 21 21 21 21 21 21 21 21 20 20 20 20 20 20 20 20 20 20 19 19 19 19 19 19 19 19 19 19 19 19 19 19 18
22 21 21 21 23 25 26 26 27 26 26 25 24 23 23 22 22 22 21 21 21 21 21 21 20 20 20 20 20 20 20 20 19 19 19 19 19 19 19 19 19 19 19 19 19 19 19 18 18
22 22 21 22 24 26 27 27 27 26 26 25 24 23 22 22 22 22 22 21 22 21 21 21 21 20 20 20 20 20 20 20 19 19 19 19 19 19 19 19 19 19 19 19 19 19 19 18 18
22 21 22 23 25 27 27 27 27 26 25 24 23 22 22 22 22 22 22 22 22 21 21 21 21 20 20 20 20 20 20 20 19 19 19 19 19 19 19 19 19 19 19 19 19 18 19 18 18
22 22 23 24 25 26 27 27 27 26 25 25 24 22 22 22 22 22 22 22 21 21 21 21 21 20 20 20 20 20 20 19 19 19 19 19 19 19 19 19 19 19 19 19 19 18 18 18 18
24 22 24 24 25 26 28 28 27 26 25 25 24 23 22 22 22 22 22 21 21 21 21 21 21 20 20 20 20 20 20 19 19 19 19 19 19 19 19 19 19 19 19 19 18 18 18 18 18
25 23 23 25 25 26 28 27 27 26 26 25 25 24 23 23 22 22 21 21 21 21 21 21 21 20 20 20 20 20 19 19 19 19 19 19 19 19 19 19 19 19 19 19 18 18 18 18 18
25 23 25 26 26 26 27 27 27 26 25 24 24 23 23 23 22 22 21 21 21 21 21 21 21 20 20 20 20 20 20 19 19 19 19 19 19 19 19 19 19 19 19 19 18 18 18 18 18
26 25 26 27 28 28 27 27 27 25 24 24 24 23 23 23 22 22 21 21 21 21 21 21 21 20 20 20 20 20 20 19 19 19 19 19 19 19 19 19 19 19 19 19 19 19 18 19 19
27 27 28 28 28 28 27 27 27 26 25 25 24 24 23 23 22 22 22 21 21 21 21 21 20 20 20 20 20 20 20 19 19 19 19 19 19 19 19 19 19 19 19 19 19 19 19 19 19
27 27 28 28 28 28 28 27 27 26 25 25 24 24 23 23 23 22 22 22 22 21 21 20 20 20 20 20 20 20 20 20 19 19 19 19 19 19 19 19 19 19 19 19 19 19 19 19 19
27 28 28 28 28 28 27 27 26 26 25 25 24 23 23 23 23 22 22 22 22 21 21 21 20 20 20 20 20 20 20 20 20 20 19 19 19 19 19 19 19 19 19 19 19 19 19 19 19
28 27 27 28 28 28 27 26 25 26 25 25 24 24 23 23 23 23 22 22 22 22 21 21 21 20 20 20 20 20 20 20 20 20 19 19 19 19 19 19 19 19 19 19 19 19 19 19 19
27 26 26 27 28 28 26 24 26 26 25 24 24 23 23 23 23 23 23 22 22 22 21 21 21 21 20 20 20 20 20 20 20 20 19 19 19 19 19 19 19 19 19 19 19 19 19 19 19
25 25 26 27 28 28 26 25 26 26 25 24 24 23 23 23 23 23 23 22 22 22 21 21 21 21 20 20 20 20 20 20 20 20 20 19 19 19 19 19 19 19 19 19 19 19 19 19 19
25 25 26 26 27 27 26 25 25 25 25 24 24 23 23 23 23 23 23 22 22 22 21 21 21 21 20 20 20 20 20 20 20 20 20 20 19 19 19 19 19 19 19 19 19 19 19 19 19
26 26 26 27 28 27 25 25 25 25 25 24 23 23 23 23 23 23 23 22 22 22 21 21 21 21 20 20 20 20 20 20 19 19 19 19 19 19 19 19 19 19 19 19 19 19 19 19 19
27 26 26 27 28 27 25 24 24 24 24 24 23 23 23 22 22 22 22 22 22 22 22 21 21 21 20 20 20 20 20 19 19 19 19 19 19 19 19 19 19 19 19 19 19 19 19 18 18
27 26 27 27 27 26 25 24 23 24 24 24 23 23 23 22 22 22 22 22 22 22 22 21 21 21 21 20 20 20 20 19 19 19 19 19 19 19 19 19 19 19 19 19 19 19 19 19 19
26 28 28 27 25 24 25 22 23 23 23 23 23 23 23 22 22 22 22 22 22 22 22 21 21 21 21 20 20 20 20 19 19 19 19 19 19 19 19 19 19 19 19 19 19 19 19 19 19
27 28 28 27 25 24 23 22 22 22 22 22 22 23 23 23 22 22 22 22 22 22 22 21 21 21 20 20 20 20 20 19 19 19 19 19 19 19 19 19 19 19 19 19 19 19 19 19 19
29 28 26 23 22 23 23 23 22 21 22 22 22 23 23 23 22 22 22 22 22 22 21 21 21 21 20 20 20 20 19 19 19 19 19 19 19 19 19 19 19 19 19 19 19 19 19 19 18
27 24 23 23 21 22 22 23 22 22 23 23 22 22 23 23 22 22 22 21 22 21 21 21 21 20 20 20 20 20 19 19 19 19 19 19 19 19 19 19 19 19 19 19 19 19 18 18 18
27 24 23 23 22 22 22 22 22 23 23 23 22 22 22 22 22 22 22 22 21 21 21 21 20 20 20 20 20 19 19 19 19 19 19 19 19 19 18 18 18 18 18 18 18 18 18 18 18
27 25 23 22 22 22 22 22 23 23 22 22 22 21 21 22 22 22 22 22 21 21 21 21 21 20 20 20 20 19 19 19 19 19 19 19 18 18 18 18 18 18 18 18 18 18 18 18 18
27 25 22 22 22 22 22 22 21 22 22 21 21 21 21 21 21 21 21 21 21 21 21 21 21 20 20 20 19 19 19 19 18 18 18 18 18 18 18 18 18 18 18 18 18 18 18 18 18
27 26 22 20 20 21 22 22 23 22 21 21 21 21 21 21 21 21 21 21 21 21 20 20 20 20 19 19 19 19 19 19 18 18 18 18 18 18 18 18 18 18 18 17 17 18 18 18 18
27 26 22 22 22 20 20 21 23 22 21 21 21 21 21 21 21 21 21 20 20 20 20 20 20 19 19 19 19 18 18 18 18 18 18 18 18 18 17 17 17 17 17 17 17 17 17 17 17
Wind_Speed
12 10 4 2 1 2 2 3 5 7 7 9 12 11 10 7 5 5 2 6 6 5 4 7 9 9 9 8 8 9 9 10 10 10 11 11 11 12 12 12 12 13 15 15 16 16 16 16 16
9 6 3 1 2 3 3 4 8 9 11 12 12 12 10 7 7 8 5 6 7 6 5 8 10 9 9 9 9 9 10 10 11 11 11 11 11 11 11 12 12 14 14 15 16 16 15 15 15
7 5 1 1 1 3 3 5 9 11 10 9 7 7 6 5 6 6 7 9 7 5 6 8 11 10 10 10 9 9 10 11 11 12 12 12 11 11 11 11 12 14 14 15 15 14 14 14 14
3 2 1 1 1 2 5 6 10 11 10 9 9 7 4 4 4 8 11 11 9 6 6 9 11 10 10 9 9 9 9 10 11 11 11 12 11 11 11 10 12 14 14 14 14 13 13 13 13
1 1 2 2 1 3 5 8 8 10 7 9 11 8 4 3 10 14 13 11 10 6 5 8 10 9 9 9 8 8 9 10 10 10 11 11 11 11 10 12 14 15 14 14 13 13 12 12 12
1 2 2 2 3 3 4 8 12 13 13 11 11 8 4 6 11 12 12 10 9 7 5 7 9 10 9 9 8 8 8 9 10 10 10 10 10 10 10 12 14 15 14 13 13 13 12 12 12
1 2 1 3 3 5 5 7 10 11 11 7 8 6 4 6 9 11 10 9 7 6 5 4 6 7 8 8 8 8 9 9 9 10 10 11 10 11 11 12 14 14 13 13 13 12 12 11 11
3 1 1 2 4 4 5 6 9 11 9 10 7 7 6 7 10 11 9 8 7 6 5 4 4 4 5 6 8 8 9 9 10 10 10 11 10 11 12 12 14 13 12 12 11 11 11 10 10
2 2 1 3 4 4 7 9 7 8 9 6 5 7 9 12 13 11 9 7 6 6 4 3 3 3 4 5 6 7 8 9 8 8 9 8 6 7 8 11 12 12 11 10 10 9 9 8 7
4 3 3 4 5 5 8 9 7 7 10 9 9 10 12 12 13 12 10 8 6 5 4 3 3 3 3 5 5 4 5 6 5 5 5 5 5 6 8 10 11 11 10 9 8 8 7 5 4
3 4 3 2 4 7 7 6 5 10 8 11 14 13 13 11 10 10 10 8 7 6 5 4 4 3 3 3 4 3 4 4 4 5 5 5 4 4 4 4 5 5 6 4 4 3 2 3 3
3 1 2 3 5 7 7 6 6 8 9 12 14 15 13 11 9 9 9 7 6 5 4 4 4 4 3 3 3 3 3 3 3 4 5 5 3 3 3 3 3 2 2 3 2 2 2 2 3
3 1 2 3 5 7 8 8 9 8 12 14 14 14 13 12 9 8 8 8 7 6 5 5 5 5 4 4 3 4 3 3 4 4 5 5 3 3 2 2 2 2 3 2 2 2 2 2 2
3 2 3 4 4 6 11 9 7 8 12 14 14 13 11 11 10 8 9 8 7 6 6 5 6 5 5 4 3 3 3 3 4 4 4 5 4 3 3 3 2 2 3 3 3 2 2 2 2
2 3 3 2 4 4 10 7 7 10 12 14 14 13 12 10 10 10 10 9 8 7 6 5 6 5 5 4 3 3 3 4 3 3 4 6 5 4 3 3 2 1 2 3 2 1 2 2 3
4 4 1 3 2 4 8 6 6 10 13 12 12 12 11 9 10 10 10 9 8 7 6 5 6 6 5 4 3 3 3 4 3 3 4 5 5 5 3 3 2 1 2 2 2 2 2 2 2
4 1 2 4 1 3 6 5 7 9 12 11 10 10 10 9 9 9 10 9 8 8 7 6 6 5 4 4 3 3 3 3 3 3 3 3 4 5 3 2 1 1 2 2 2 2 2 2 1
4 2 3 4 3 4 5 4 6 7 10 11 10 10 10 10 9 9 10 9 8 7 7 6 6 5 4 4 4 3 3 2 2 2 2 3 3 4 3 2 2 2 2 1 1 1 1 1 2
5 3 4 4 3 4 5 5 5 4 6 9 9 9 9 8 7 7 8 9 9 7 7 6 6 4 4 3 3 2 2 1 1 1 2 3 3 3 3 2 2 2 2 1 1 1 1 1 1
4 2 3 2 3 4 6 4 4 5 6 8 9 9 9 7 6 7 7 8 8 8 7 7 6 5 4 3 2 2 2 1 1 1 2 2 3 3 3 3 2 2 2 2 1 1 1 0 1
4 4 5 3 1 3 6 2 0 3 4 7 9 8 9 11 10 9 8 7 7 7 7 7 6 6 5 4 3 3 3 2 2 1 1 1 2 3 3 3 2 1 2 1 1 1 2 1 1
5 6 5 4 2 1 3 2 4 4 4 6 8 8 9 10 9 8 8 7 8 7 7 6 6 6 5 5 4 4 3 2 1 1 1 0 1 2 3 2 2 2 2 1 1 1 1 2 1
7 6 3 3 3 2 2 3 4 2 4 6 7 10 10 9 10 9 9 9 7 7 6 6 5 5 5 5 5 4 3 2 1 1 1 1 1 1 1 2 2 1 1 1 1 1 1 1 1
3 3 5 6 5 2 3 3 4 4 7 6 6 8 8 9 9 9 8 7 6 6 5 6 6 5 5 5 4 5 4 3 3 2 1 0 1 0 0 1 1 1 1 1 1 1 2 1 1
4 6 4 5 4 4 3 2 5 4 6 8 9 7 7 7 8 8 8 7 7 6 5 5 6 5 4 5 4 4 4 4 4 3 2 1 0 0 1 1 1 1 1 1 1 1 1 1 1
3 9 7 4 4 3 3 1 4 2 5 7 7 6 7 7 7 9 9 9 8 7 6 6 6 4 4 4 4 4 4 3 2 2 2 2 1 1 1 1 1 0 1 1 1 1 0 1 1
2 3 8 7 2 1 2 2 3 3 6 7 7 6 6 6 7 7 8 8 7 7 6 7 6 5 4 5 4 4 3 3 2 2 2 1 1 1 1 1 1 1 1 1 1 1 0 1 1
5 6 6 5 4 1 2 3 5 5 6 7 8 6 6 5 6 6 6 6 6 6 5 5 6 5 4 4 4 3 3 3 3 2 2 2 1 1 1 1 1 1 1 1 1 1 0 1 0
1 2 5 5 6 6 3 5 6 11 10 10 10 9 8 8 6 6 6 5 6 6 5 4 4 3 3 3 3 3 3 3 3 3 2 2 1 1 1 2 2 2 1 1 1 1 1 1 0
3 3 6 5 3 5 4 5 2 9 9 9 9 8 8 8 6 6 6 5 5 5 5 5 4 4 3 3 3 3 2 2 2 2 2 2 2 1 1 1 2 2 1 1 1 0 0 1 0
Wind_Direction
161 160 161 189 29 31 70 92 104 85 69 68 76 82 80 66 90 120 153 135 125 127 123 114 102 99 99 96 90 88 91 95 100 110 112 113 115 119 120 122 127 137 140 141 145 144 144 144 143
160 164 185 215 58 65 61 93 91 101 122 108 83 82 77 71 88 114 130 142 134 126 122 113 105 100 99 96 91 93 93 94 98 105 109 111 115 117 119 120 125 132 136 137 141 143 143 144 145
171 190 200 49 106 162 134 111 107 103 107 97 89 70 74 98 108 133 154 145 128 118 120 116 107 104 102 98 95 95 95 94 98 102 106 109 112 113 116 123 128 131 132 135 136 139 140 141 143
170 179 39 50 147 173 134 123 113 104 85 81 96 77 70 99 122 136 141 136 124 121 125 119 111 108 104 99 97 99 96 96 98 102 102 106 107 110 113 122 131 130 131 133 135 137 139 141 143
108 90 41 20 91 98 114 126 116 103 95 93 96 100 88 81 114 128 134 134 130 129 127 123 114 111 106 102 101 103 101 98 99 100 101 104 106 109 110 116 129 131 130 131 131 133 136 140 136
55 63 63 60 85 89 100 111 101 102 109 108 104 109 111 117 122 133 134 134 132 133 126 123 118 112 108 106 105 109 109 106 105 102 101 103 107 108 110 116 126 130 131 130 129 129 126 122 122
140 88 149 124 104 104 111 110 107 113 120 122 124 106 123 130 137 136 131 128 127 124 122 114 120 116 109 106 107 115 116 113 111 108 104 107 106 104 109 119 125 128 129 130 129 129 126 124 124
174 110 37 128 123 118 114 101 115 113 113 129 122 123 150 161 138 124 120 120 124 119 124 129 124 119 120 119 113 123 126 120 118 113 111 107 105 100 104 117 123 127 129 129 131 130 129 127 128
160 72 147 166 142 137 118 101 98 95 106 106 101 127 147 140 126 118 114 111 123 126 125 128 125 122 128 125 118 122 126 125 124 118 115 110 108 107 106 116 123 128 133 136 137 135 134 133 132
145 140 198 187 153 144 125 116 118 102 99 98 101 110 127 129 130 131 132 132 135 143 148 145 144 136 128 120 113 121 121 121 117 114 115 113 114 120 121 124 128 132 136 139 141 143 141 138 140
141 159 158 151 149 132 122 110 112 119 121 139 137 136 135 130 133 136 141 145 148 150 145 148 145 129 117 100 111 116 123 118 116 119 120 117 112 117 114 114 114 122 129 133 135 133 133 136 143
127 167 171 132 131 123 128 130 120 129 149 148 141 138 136 134 136 139 138 139 134 129 133 127 137 126 123 118 108 112 118 119 124 132 131 122 109 112 115 114 118 114 121 121 122 134 142 151 156
140 164 141 136 126 131 118 116 120 121 135 136 134 132 137 138 140 136 131 128 119 114 117 115 117 115 112 111 105 103 108 122 130 127 132 128 119 120 121 123 130 134 138 137 145 152 155 156 159
208 175 125 118 111 128 120 118 107 136 138 136 135 136 141 144 142 129 126 125 121 117 115 118 115 115 111 109 106 101 104 112 116 117 127 128 127 124 121 120 118 135 152 146 145 155 151 138 131
99 85 60 126 139 143 116 105 136 148 139 140 141 141 142 144 140 138 142 139 136 132 123 123 121 112 109 109 111 101 104 113 108 110 117 118 119 118 115 112 102 116 126 124 118 107 97 106 113
38 50 37 263 150 158 118 145 168 149 139 142 146 146 145 145 144 145 144 140 140 133 128 130 127 118 113 109 100 97 96 107 110 114 122 121 120 122 115 97 93 96 98 102 105 102 91 90 113
24 14 279 279 216 132 114 156 173 150 144 146 149 148 148 144 143 148 149 144 143 139 133 125 122 126 123 110 100 93 91 101 104 107 116 121 111 113 115 105 107 114 96 98 117 107 121 126 134
247 254 267 250 222 100 101 135 146 152 148 150 150 149 149 152 156 154 153 146 140 134 129 128 127 127 117 100 84 70 70 76 81 97 116 122 115 112 114 109 96 101 92 82 106 124 119 155 170
217 242 272 252 191 115 113 113 135 149 141 148 150 152 157 162 159 150 148 146 138 134 130 129 128 131 121 110 104 96 94 88 81 87 108 119 120 120 113 104 89 97 116 149 133 116 105 100 109
244 224 268 300 163 134 119 119 144 150 164 156 153 158 161 156 150 146 147 150 148 149 147 143 145 143 141 140 140 136 133 127 139 110 93 125 130 134 125 117 115 116 110 79 76 100 105 169 139
261 217 223 210 10 89 106 44 202 174 148 144 154 163 160 165 164 160 156 155 150 154 159 157 156 149 148 139 114 92 68 45 45 50 54 50 111 113 112 117 124 126 132 132 134 128 136 185 278
254 245 211 194 129 220 140 175 260 198 159 167 169 166 164 164 158 156 154 157 163 165 159 149 151 148 150 139 132 133 134 143 190 178 156 343 86 114 132 132 136 137 136 149 206 164 150 145 242
224 231 207 184 133 60 31 127 267 183 173 192 181 172 168 163 161 167 167 164 159 156 149 143 140 140 142 140 144 140 135 152 146 112 100 70 44 90 133 131 132 133 144 169 185 143 121 148 176
192 67 43 53 69 13 256 154 237 203 195 180 170 169 162 161 164 166 163 152 147 142 142 144 142 145 148 146 145 146 145 143 128 128 135 73 29 39 226 129 130 156 178 184 182 166 141 157 160
89 89 38 8 14 261 271 139 235 219 175 163 163 167 164 157 156 155 152 149 152 150 153 149 146 152 158 154 153 153 153 151 158 171 174 168 151 210 239 188 180 187 205 178 149 122 140 154 144
189 136 155 192 210 272 334 226 264 191 133 133 143 155 143 143 157 159 159 162 162 160 159 154 154 154 162 165 168 158 152 156 168 176 172 176 187 199 187 174 162 136 102 141 137 116 126 106 109
169 170 165 140 132 96 296 306 332 92 108 121 128 133 138 143 148 154 154 153 157 159 163 163 160 162 166 172 169 160 154 152 167 176 170 171 184 178 180 180 158 146 106 119 127 112 139 102 96
164 158 95 114 140 199 255 225 211 179 153 144 146 149 149 144 136 128 133 145 156 163 160 153 161 169 161 155 168 166 161 165 174 159 164 175 191 192 145 104 107 91 85 109 129 141 128 109 259
37 81 106 119 145 153 210 256 212 175 167 163 165 166 152 143 138 134 134 145 156 150 145 142 140 135 141 148 149 161 165 168 158 158 185 182 172 130 121 118 105 85 64 81 112 150 148 143 294
160 157 138 146 208 159 162 260 254 165 159 158 163 157 151 149 147 137 126 124 139 141 141 146 150 143 148 145 137 165 170 160 157 164 184 161 139 143 158 136 120 106 80 55 95 145 114 136 154
Height
1503 1504 1505 1506 1507 1510 1508 1498 1490 1489 1491 1492 1491 1493 1496 1500 1504 1512 1508 1506 1505 1504 1502 1501 1499 1497 1496 1494 1492 1490 1488 1485 1483 1483 1484 1486 1487 1487 1488 1488 1488 1489 1491 1493 1496 1499 1502 1505 1508
1504 1504 1506 1506 1510 1519 1509 1495 1492 1490 1492 1492 1494 1496 1498 1502 1504 1506 1506 1507 1506 1504 1503 1501 1500 1498 1497 1495 1494 1492 1490 1487 1485 1484 1485 1487 1488 1488 1488 1488 1489 1490 1492 1495 1497 1500 1503 1506 1508
1504 1504 1506 1506 1510 1514 1507 1494 1491 1491 1491 1491 1495 1498 1501 1504 1506 1506 1507 1507 1506 1505 1504 1503 1501 1500 1498 1497 1495 1494 1492 1490 1488 1488 1488 1489 1489 1490 1489 1489 1490 1491 1494 1496 1499 1501 1504 1506 1509
1504 1505 1506 1508 1509 1499 1495 1492 1490 1491 1494 1494 1496 1501 1504 1506 1506 1506 1507 1507 1507 1506 1505 1504 1502 1501 1500 1498 1497 1495 1494 1493 1492 1491 1491 1491 1491 1491 1490 1488 1489 1493 1496 1499 1501 1503 1506 1507 1509
1504 1504 1508 1511 1504 1495 1490 1490 1490 1491 1495 1498 1498 1503 1506 1508 1507 1507 1508 1508 1508 1507 1506 1505 1504 1502 1501 1500 1498 1497 1496 1495 1495 1494 1494 1494 1493 1492 1490 1486 1487 1493 1498 1500 1502 1504 1507 1508 1509
1505 1505 1514 1515 1504 1495 1491 1491 1492 1494 1498 1500 1501 1504 1508 1509 1508 1509 1509 1510 1509 1508 1507 1507 1505 1504 1502 1501 1500 1499 1498 1498 1497 1497 1497 1496 1495 1493 1491 1489 1491 1496 1500 1502 1504 1506 1509 1510 1511
1506 1508 1512 1509 1505 1499 1494 1492 1492 1495 1498 1500 1501 1504 1509 1510 1510 1511 1511 1511 1511 1510 1509 1508 1507 1506 1504 1503 1501 1500 1500 1500 1500 1500 1499 1499 1498 1495 1493 1492 1495 1499 1503 1505 1508 1510 1511 1513 1515
1503 1506 1508 1506 1504 1501 1494 1493 1494 1495 1499 1502 1502 1504 1508 1511 1511 1512 1512 1512 1512 1512 1511 1510 1509 1508 1506 1505 1503 1502 1502 1503 1503 1502 1502 1502 1501 1499 1497 1497 1500 1503 1506 1509 1511 1513 1515 1517 1518
1501 1509 1512 1505 1503 1499 1494 1495 1497 1498 1499 1502 1502 1504 1507 1510 1511 1513 1514 1514 1514 1513 1513 1512 1511 1510 1508 1507 1506 1505 1505 1505 1506 1506 1505 1505 1505 1504 1504 1505 1506 1508 1510 1512 1514 1516 1518 1519 1521
1501 1510 1504 1495 1494 1496 1496 1496 1497 1500 1501 1503 1505 1507 1509 1510 1511 1513 1513 1514 1514 1514 1514 1514 1513 1512 1511 1510 1509 1508 1508 1508 1509 1509 1509 1509 1509 1509 1509 1510 1511 1513 1514 1515 1517 1519 1521 1522 1523
1498 1501 1496 1494 1493 1494 1496 1497 1498 1500 1504 1504 1504 1507 1509 1511 1512 1513 1514 1515 1516 1516 1516 1516 1515 1514 1514 1513 1512 1512 1512 1512 1512 1512 1513 1513 1512 1513 1513 1514 1515 1516 1518 1519 1520 1522 1523 1524 1525
1496 1494 1493 1493 1493 1494 1495 1497 1499 1500 1503 1504 1505 1507 1509 1511 1513 1514 1515 1516 1517 1518 1518 1517 1517 1516 1516 1516 1515 1515 1515 1515 1515 1515 1516 1516 1516 1516 1516 1517 1518 1519 1520 1521 1522 1523 1525 1526 1527
1494 1493 1492 1492 1493 1494 1495 1497 1499 1502 1503 1505 1507 1509 1511 1512 1514 1516 1517 1517 1518 1518 1519 1519 1519 1518 1518 1518 1518 1518 1518 1518 1519 1519 1519 1519 1519 1519 1519 1520 1520 1521 1522 1523 1524 1525 1526 1527 1528
1493 1492 1492 1492 1493 1495 1495 1499 1500 1504 1505 1507 1508 1510 1512 1513 1515 1516 1517 1518 1519 1519 1520 1520 1520 1521 1521 1520 1520 1521 1521 1521 1521 1521 1521 1521 1521 1521 1521 1522 1523 1524 1524 1525 1526 1526 1527 1528 1528
1493 1494 1495 1493 1493 1495 1497 1504 1503 1504 1505 1507 1509 1511 1513 1514 1516 1516 1518 1518 1519 1520 1521 1521 1522 1522 1522 1522 1522 1523 1523 1523 1523 1523 1524 1524 1524 1524 1524 1524 1525 1525 1526 1527 1527 1528 1528 1528 1529
1495 1501 1507 1497 1494 1495 1501 1513 1504 1504 1505 1508 1510 1512 1513 1515 1516 1517 1518 1519 1520 1521 1521 1522 1523 1523 1524 1524 1524 1524 1525 1525 1525 1525 1525 1525 1525 1526 1526 1526 1526 1527 1527 1527 1528 1528 1529 1529 1529
1506 1513 1511 1502 1494 1494 1500 1509 1503 1505 1506 1508 1510 1512 1514 1515 1516 1518 1519 1520 1521 1521 1522 1523 1523 1524 1525 1526 1526 1526 1526 1527 1527 1527 1527 1527 1527 1527 1527 1527 1527 1528 1528 1528 1528 1529 1529 1529 1530
1515 1512 1509 1506 1496 1495 1501 1505 1504 1505 1506 1508 1510 1512 1513 1515 1516 1518 1519 1520 1521 1522 1523 1524 1524 1525 1526 1527 1527 1528 1528 1528 1528 1528 1528 1528 1528 1528 1527 1527 1528 1528 1528 1528 1529 1529 1529 1529 1530
1502 1507 1508 1501 1493 1497 1503 1506 1506 1506 1508 1508 1510 1512 1514 1515 1517 1518 1520 1521 1522 1523 1524 1524 1525 1526 1527 1527 1528 1528 1529 1529 1529 1529 1529 1529 1529 1529 1528 1528 1528 1528 1528 1528 1529 1529 1529 1529 1530
1499 1506 1505 1499 1493 1498 1505 1508 1506 1507 1507 1508 1509 1511 1513 1515 1517 1518 1520 1521 1522 1522 1523 1524 1525 1526 1527 1528 1529 1529 1530 1530 1530 1530 1530 1530 1529 1529 1529 1529 1529 1529 1529 1529 1529 1529 1529 1529 1530
1499 1503 1502 1501 1497 1498 1506 1516 1512 1508 1508 1508 1509 1511 1512 1513 1515 1517 1519 1520 1521 1522 1523 1524 1525 1526 1528 1528 1529 1530 1530 1530 1530 1530 1530 1530 1530 1529 1529 1529 1529 1529 1529 1528 1528 1529 1528 1528 1529
1503 1491 1491 1496 1507 1516 1510 1532 1518 1510 1509 1508 1509 1510 1511 1513 1515 1517 1518 1519 1521 1522 1523 1524 1525 1526 1528 1528 1529 1529 1530 1530 1530 1530 1530 1530 1530 1530 1529 1529 1529 1528 1528 1528 1528 1528 1528 1528 1528
1490 1483 1487 1493 1505 1516 1515 1527 1523 1512 1513 1511 1509 1509 1510 1512 1514 1515 1516 1517 1519 1521 1523 1524 1525 1526 1527 1528 1529 1529 1530 1530 1530 1531 1530 1530 1530 1530 1529 1529 1528 1528 1528 1528 1527 1527 1527 1527 1527
1480 1486 1493 1502 1514 1530 1520 1525 1526 1516 1510 1508 1507 1508 1509 1512 1513 1514 1516 1518 1519 1521 1522 1523 1524 1525 1526 1527 1528 1529 1529 1529 1530 1530 1530 1529 1529 1529 1529 1528 1528 1527 1527 1527 1527 1527 1526 1526 1526
1484 1505 1526 1531 1539 1534 1517 1520 1520 1505 1502 1502 1505 1507 1508 1510 1512 1514 1516 1517 1518 1520 1521 1522 1523 1524 1525 1526 1527 1527 1528 1528 1529 1529 1529 1529 1528 1528 1528 1527 1527 1526 1526 1526 1526 1525 1525 1525 1525
1486 1499 1527 1539 1542 1534 1520 1523 1512 1500 1500 1501 1503 1506 1508 1509 1511 1512 1514 1515 1517 1518 1520 1521 1522 1523 1524 1525 1525 1526 1527 1527 1528 1528 1528 1528 1527 1527 1527 1527 1526 1526 1525 1525 1524 1524 1524 1524 1524
1485 1494 1498 1518 1526 1535 1529 1518 1507 1499 1500 1502 1505 1506 1508 1509 1510 1511 1513 1514 1516 1517 1518 1520 1520 1521 1522 1523 1525 1525 1525 1526 1526 1527 1527 1526 1526 1526 1526 1526 1525 1524 1524 1524 1523 1523 1523 1523 1523
1477 1485 1503 1518 1534 1541 1531 1524 1520 1508 1504 1503 1504 1507 1507 1509 1510 1511 1512 1513 1515 1517 1518 1519 1520 1520 1521 1522 1523 1524 1523 1524 1525 1525 1525 1525 1525 1525 1525 1524 1524 1523 1523 1523 1522 1522 1521 1521 1521
1482 1488 1499 1513 1519 1535 1539 1528 1499 1499 1499 1500 1502 1503 1505 1508 1509 1510 1512 1513 1515 1516 1517 1518 1519 1520 1520 1521 1522 1523 1523 1523 1523 1523 1523 1524 1523 1523 1523 1523 1522 1522 1522 1521 1521 1520 1520 1520 1519
1476 1483 1496 1512 1518 1521 1529 1524 1491 1493 1495 1497 1500 1502 1505 1506 1508 1509 1511 1512 1514 1515 1515 1516 1517 1518 1519 1519 1520 1521 1521 1521 1521 1521 1522 1522 1521 1521 1521 1521 1520 1520 1520 1519 1519 1519 1518 1518 1517